HZL01 YLMQ-YSMB

Flight info

Callsign HZL01
Flight time N/A
Altitude 4000
Route GUNTA
Aircraft C172/L-SFG/C

Departure

Time 2026-05-04 22:36
Airport Lake Macquarie Airport (YLMQ)

Arrival

Time N/A
Airport Somersby Airstrip (YSMB)
Time Latitude Longitude Altitude Speed Heading
2026-05-04 22:31 -33.06613 151.65049 8 ft 0 kts 357°
2026-05-04 22:32 -33.06593 151.65045 8 ft 7 kts 337°
2026-05-04 22:33 -33.06543 151.65031 9 ft 8 kts 283°
2026-05-04 22:33 -33.06554 151.64956 7 ft 11 kts 264°
2026-05-04 22:33 -33.06567 151.64856 5 ft 13 kts 259°
2026-05-04 22:33 -33.06579 151.64744 6 ft 15 kts 263°
2026-05-04 22:34 -33.06594 151.64600 7 ft 20 kts 264°
2026-05-04 22:34 -33.06612 151.64437 5 ft 20 kts 261°
2026-05-04 22:34 -33.06632 151.64276 5 ft 18 kts 260°
2026-05-04 22:34 -33.06656 151.64183 6 ft 8 kts 292°
2026-05-04 22:35 -33.06636 151.64226 6 ft 10 kts 79°
2026-05-04 22:35 -33.06634 151.64244 6 ft 0 kts 84°
2026-05-04 22:35 -33.06609 151.64474 6 ft 55 kts 78°
2026-05-04 22:35 -33.06548 151.65035 73 ft 72 kts 88°
2026-05-04 22:36 -33.06337 151.65537 235 ft 70 kts 43°
2026-05-04 22:36 -33.05936 151.65768 387 ft 61 kts 337°
2026-05-04 22:36 -33.05655 151.65440 478 ft 61 kts 278°
2026-05-04 22:36 -33.05789 151.64939 620 ft 70 kts 229°
2026-05-04 22:37 -33.06164 151.64534 691 ft 82 kts 221°
2026-05-04 22:37 -33.06617 151.64089 739 ft 86 kts 219°
2026-05-04 22:37 -33.07082 151.63665 815 ft 86 kts 221°
2026-05-04 22:37 -33.07603 151.63272 948 ft 87 kts 213°
2026-05-04 22:38 -33.08099 151.62857 1150 ft 82 kts 227°
2026-05-04 22:38 -33.08536 151.62446 1309 ft 84 kts 223°
2026-05-04 22:38 -33.09011 151.62029 1379 ft 87 kts 220°
2026-05-04 22:38 -33.09548 151.61625 1434 ft 91 kts 214°
2026-05-04 22:39 -33.10082 151.61251 1522 ft 91 kts 219°
2026-05-04 22:39 -33.10624 151.60845 1597 ft 91 kts 218°
2026-05-04 22:39 -33.11101 151.60416 1712 ft 83 kts 234°
2026-05-04 22:39 -33.11496 151.59858 1716 ft 88 kts 238°
2026-05-04 22:40 -33.11875 151.59324 1827 ft 87 kts 233°
2026-05-04 22:40 -33.12299 151.58807 1866 ft 85 kts 244°
2026-05-04 22:40 -33.12624 151.58205 1947 ft 89 kts 233°
2026-05-04 22:40 -33.13071 151.57703 1994 ft 87 kts 243°
2026-05-04 22:41 -33.13425 151.57156 2127 ft 85 kts 234°
2026-05-04 22:41 -33.13913 151.56707 2401 ft 88 kts 223°
2026-05-04 22:41 -33.14403 151.56275 2639 ft 88 kts 230°
2026-05-04 22:41 -33.14889 151.55837 2810 ft 88 kts 223°
2026-05-04 22:42 -33.15468 151.55472 2814 ft 95 kts 218°
2026-05-04 22:42 -33.16039 151.55106 2902 ft 93 kts 220°
2026-05-04 22:42 -33.16598 151.54707 3072 ft 90 kts 220°
2026-05-04 22:42 -33.17187 151.54372 3103 ft 97 kts 217°
2026-05-04 22:43 -33.17708 151.53917 3141 ft 90 kts 238°
2026-05-04 22:43 -33.18139 151.53383 3285 ft 86 kts 235°
2026-05-04 22:43 -33.18565 151.52839 3287 ft 92 kts 239°
2026-05-04 22:43 -33.19053 151.52358 3392 ft 92 kts 225°
2026-05-04 22:44 -33.19604 151.51941 3428 ft 95 kts 218°
2026-05-04 22:44 -33.20212 151.51569 3443 ft 99 kts 217°